KC1SQ Weather Reports


Display with metric or nautical units.
time (UTC)temp
F
wind
direction
speed
MPH
gust
MPH
rain 1hr
in
rain 24hr
in
rain mn
in
humidity
%
barometer
mb
20260901133849 62 236 0.0 0.0 0.00 0.00 0.00 66 1018.3
20260901133343 62 236 0.0 0.0 0.00 0.00 0.00 67 1018.3
20260901132837 62 236 0.0 0.0 0.00 0.00 0.00 67 1018.3
20260901132330 61 236 0.0 0.0 0.00 0.00 0.00 67 1018.5
20260901131825 61 236 0.0 0.0 0.00 0.00 0.00 68 1018.5
20260901131319 61 236 0.0 0.0 0.00 0.00 0.00 68 1018.4
20260901130812 61 236 0.0 0.0 0.00 0.00 0.00 68 1018.5
20260901130307 61 236 0.0 0.0 0.00 0.00 0.00 68 1018.5
20260901130030 61 236 0.0 0.0 0.00 0.00 0.00 68 1018.4
20260901125251 60 236 0.0 0.0 0.00 0.00 0.00 69 1018.4
20260901125001 60 236 0.0 0.0 0.00 0.00 0.00 69 1018.6
20260901124239 60 236 0.0 0.0 0.00 0.00 0.00 70 1018.6
20260901123733 60 236 0.0 0.0 0.00 0.00 0.00 70 1018.6
20260901123227 60 236 0.0 0.0 0.00 0.00 0.00 74 1018.6
20260901122721 59 236 0.0 0.0 0.00 0.00 0.00 74 1018.7
20260901122215 59 236 0.0 0.0 0.00 0.00 0.00 74 1018.5
20260901121709 59 236 0.0 0.0 0.00 0.00 0.00 74 1018.5
20260901121422 58 236 0.0 0.0 0.00 0.00 0.00 74 1018.3
20260901120657 58 236 0.0 0.0 0.00 0.00 0.00 74 1018.4
20260901120151 58 236 0.0 0.0 0.00 0.00 0.00 75 1018.4
20260901115645 58 236 0.0 0.0 0.00 0.00 0.00 75 1018.4
20260901115140 58 236 0.0 0.0 0.00 0.00 0.00 75 1018.4
20260901114633 58 236 0.0 0.0 0.00 0.00 0.00 76 1018.3
20260901114133 58 236 0.0 0.0 0.00 0.00 0.00 78 1018.3
20260901113633 57 236 0.0 0.0 0.00 0.00 0.00 78 1018.2
20260901113133 57 236 0.0 0.0 0.00 0.00 0.00 78 1018.1
20260901112631 57 236 0.0 0.0 0.00 0.00 0.00 78 1018.1
20260901112133 57 236 0.0 0.0 0.00 0.00 0.00 78 1018.1
20260901111633 56 236 0.0 0.0 0.00 0.00 0.00 78 1018.0
20260901111132 56 236 0.0 0.0 0.00 0.00 0.00 79 1018.0
20260901110632 56 236 0.0 0.0 0.00 0.00 0.00 79 1018.0
20260901110131 56 236 0.0 0.0 0.00 0.00 0.00 78 1017.9
20260901110116 55 236 0.0 0.0 0.00 0.00 0.00 74 1017.8
20260901105131 55 236 0.0 0.0 0.00 0.00 0.00 72 1017.8
20260901104629 55 236 0.0 0.0 0.00 0.00 0.00 72 1017.9
20260901104354 55 236 0.0 0.0 0.00 0.00 0.00 72 1017.7
20260901103626 54 236 0.0 0.0 0.00 0.00 0.00 71 1017.8
20260901103127 54 236 0.0 0.0 0.00 0.00 0.00 71 1017.7
20260901102626 54 236 0.0 0.0 0.00 0.00 0.00 72 1017.6
20260901102123 54 236 0.0 0.0 0.00 0.00 0.00 72 1017.6
20260901101623 54 236 0.0 0.0 0.00 0.00 0.00 72 1017.5
20260901101124 54 236 0.0 0.0 0.00 0.00 0.00 72 1017.6
20260901100620 54 236 0.0 0.0 0.00 0.00 0.00 72 1017.4
20260901100119 54 236 0.0 0.0 0.00 0.00 0.00 72 1017.3
20260901095619 54 236 0.0 0.0 0.00 0.00 0.00 71 1017.4
20260901095118 54 236 0.0 0.0 0.00 0.00 0.00 72 1017.5
20260901094618 54 236 0.0 0.0 0.00 0.00 0.00 72 1017.6
20260901094119 54 236 0.0 0.0 0.00 0.00 0.00 71 1017.6
20260901093619 54 236 0.0 0.0 0.00 0.00 0.00 72 1017.6
20260901093118 54 236 0.0 0.0 0.00 0.00 0.00 72 1017.5
20260901092619 54 236 0.0 0.0 0.00 0.00 0.00 72 1017.5
20260901092116 54 236 0.0 0.0 0.00 0.00 0.00 72 1017.4
20260901091613 54 236 0.0 0.0 0.00 0.00 0.00 72 1017.5
20260901091113 54 236 0.0 0.0 0.00 0.00 0.00 72 1017.6
20260901090615 54 236 0.0 0.0 0.00 0.00 0.00 72 1017.5
20260901090115 54 236 0.0 0.0 0.00 0.00 0.00 72 1017.6
20260901085614 54 236 0.0 0.0 0.00 0.00 0.00 71 1017.5
20260901085113 54 236 0.0 0.0 0.00 0.00 0.00 71 1017.6
20260901084615 54 236 0.0 0.0 0.00 0.00 0.00 71 1017.6
20260901084115 54 236 0.0 0.0 0.00 0.00 0.00 71 1017.5
20260901083832 53 236 0.0 0.0 0.00 0.00 0.00 71 1017.5
20260901083115 53 236 0.0 0.0 0.00 0.00 0.00 71 1017.5
20260901082613 53 236 0.0 0.0 0.00 0.00 0.00 71 1017.6
20260901082115 53 236 0.0 0.0 0.00 0.00 0.00 70 1017.5
20260901081615 53 236 0.0 0.0 0.00 0.00 0.00 70 1017.6
20260901081115 53 236 0.0 0.0 0.00 0.00 0.00 70 1017.6
20260901080838 53 236 0.0 0.0 0.00 0.00 0.00 69 1017.7
20260901080115 53 236 0.0 0.0 0.00 0.00 0.00 69 1017.6
20260901075614 53 236 0.0 0.0 0.00 0.00 0.00 69 1017.6
20260901075108 53 236 0.0 0.0 0.00 0.00 0.00 68 1017.6
20260901074835 53 236 0.0 0.0 0.00 0.00 0.00 68 1017.5
20260901074055 54 236 0.0 0.0 0.00 0.00 0.00 68 1017.6
20260901073820 54 236 0.0 0.0 0.00 0.00 0.00 68 1017.7
20260901073044 54 236 0.0 0.0 0.00 0.00 0.00 68 1017.7
20260901072537 54 236 0.0 0.0 0.00 0.00 0.00 68 1017.8
20260901072032 54 236 0.0 0.0 0.00 0.00 0.00 68 1017.8
20260901071527 54 236 0.0 0.0 0.00 0.00 0.00 68 1017.8
20260901071021 54 236 0.0 0.0 0.00 0.00 0.00 68 1017.9
20260901070739 54 236 0.0 0.0 0.00 0.00 0.00 68 1018.0
20260901070008 54 236 0.0 0.0 0.00 0.00 0.00 68 1017.9
20260901065724 54 236 0.0 0.0 0.00 0.00 0.00 68 1017.9
20260901064956 54 236 0.0 0.0 0.00 0.00 0.00 68 1017.8
20260901064450 54 236 0.0 0.0 0.00 0.00 0.00 68 1017.7
20260901063944 54 236 0.0 0.0 0.00 0.00 0.00 68 1017.8
20260901063439 54 236 0.0 0.0 0.00 0.00 0.00 68 1017.8
20260901062932 54 236 0.0 0.0 0.00 0.00 0.00 68 1017.7
20260901062426 54 236 0.0 0.0 0.00 0.00 0.00 67 1017.8
20260901061920 54 236 0.0 0.0 0.00 0.00 0.00 67 1017.9
20260901061414 55 236 0.0 0.0 0.00 0.00 0.00 68 1018.0
20260901060908 55 236 0.0 0.0 0.00 0.00 0.00 68 1018.1
20260901060402 55 236 0.0 0.0 0.00 0.00 0.00 68 1018.1
20260901055856 55 236 0.0 0.0 0.00 0.00 0.00 68 1018.0
20260901055350 55 236 0.0 0.0 0.00 0.00 0.00 68 1018.1
20260901055110 55 236 0.0 0.0 0.00 0.00 0.00 68 1018.0
20260901054338 55 236 0.0 0.0 0.00 0.00 0.00 68 1018.1
20260901054051 55 236 0.0 0.0 0.00 0.00 0.00 68 1018.0
20260901053326 55 236 0.0 0.0 0.00 0.00 0.00 68 1018.0
20260901052820 55 236 0.0 0.0 0.00 0.00 0.00 67 1018.0
20260901052314 55 236 0.0 0.0 0.00 0.00 0.00 67 1018.1
20260901052028 55 236 0.0 0.0 0.00 0.00 0.00 67 1017.9
20260901051302 55 236 0.0 0.0 0.00 0.00 0.00 67 1017.9
20260901050756 55 236 0.0 0.0 0.00 0.00 0.00 67 1017.9
20260901050521 55 236 0.0 0.0 0.00 0.00 0.00 67 1018.0
20260901045744 55 236 0.0 0.0 0.00 0.00 0.00 67 1017.9
20260901045238 55 236 0.0 0.0 0.00 0.00 0.00 67 1017.8
20260901044732 55 236 0.0 0.0 0.00 0.00 0.00 67 1017.9
20260901044226 55 236 0.0 0.0 0.00 0.00 0.00 67 1017.9
20260901043721 56 236 0.0 0.0 0.00 0.00 0.00 67 1018.0
20260901043214 56 236 0.0 0.0 0.00 0.00 0.00 67 1017.9
20260901042708 56 236 0.0 0.0 0.00 0.00 0.00 66 1017.8
20260901042202 56 236 0.0 0.0 0.00 0.00 0.00 66 1017.8
20260901041656 56 236 0.0 0.0 0.00 0.00 0.00 66 1017.8
20260901041150 56 236 0.0 0.0 0.00 0.00 0.00 66 1017.8
20260901040644 56 236 0.0 0.0 0.00 0.00 0.00 66 1017.8
20260901040139 56 236 0.0 0.0 0.00 0.00 0.00 66 1017.8
20260901035632 56 236 0.0 0.0 0.00 0.00 0.00 66 1017.9
20260901035126 56 236 0.0 0.0 0.00 0.00 0.00 66 1017.9
20260901034846 56 236 0.0 0.0 0.00 0.00 0.00 66 1017.9
20260901034114 56 236 0.0 0.0 0.00 0.00 0.00 66 1018.0
20260901033607 56 236 0.0 0.0 0.00 0.00 0.00 66 1018.0
20260901033102 56 236 0.0 0.0 0.00 0.00 0.00 66 1018.0
20260901032556 57 236 0.0 0.0 0.00 0.00 0.00 66 1017.9
20260901032050 57 236 0.0 0.0 0.00 0.00 0.00 66 1017.9
20260901031810 57 236 0.0 0.0 0.00 0.00 0.00 66 1017.8
20260901031302 57 236 0.0 0.0 0.00 0.00 0.00 66 1017.9
20260901030532 57 236 0.0 0.0 0.00 0.00 0.00 65 1018.0
20260901030026 57 236 0.0 0.0 0.00 0.00 0.00 66 1017.9
20260901025527 57 236 0.0 0.0 0.00 0.00 0.00 66 1017.9
20260901025028 57 236 0.0 0.0 0.00 0.00 0.00 66 1018.0
20260901024525 57 236 0.0 0.0 0.00 0.00 0.00 66 1018.2
20260901024025 58 236 0.0 0.0 0.00 0.00 0.00 66 1018.1
20260901023523 58 236 0.0 0.0 0.00 0.00 0.00 66 1018.1
20260901023024 58 236 0.0 0.0 0.00 0.00 0.00 66 1017.9
20260901022524 58 236 0.0 0.0 0.00 0.00 0.00 66 1017.9
20260901022025 58 236 0.0 0.0 0.00 0.00 0.00 65 1017.9
20260901021522 58 236 0.0 0.0 0.00 0.00 0.00 65 1017.9
20260901021020 58 236 0.0 0.0 0.00 0.00 0.00 65 1018.0
20260901020746 59 236 0.0 0.0 0.00 0.00 0.00 65 1017.9
20260901020015 59 236 0.0 0.0 0.00 0.00 0.00 64 1018.1
20260901015515 59 236 0.0 0.0 0.00 0.00 0.00 64 1018.1
20260901015016 59 236 0.0 0.0 0.00 0.00 0.00 64 1018.1
20260901014513 59 236 0.0 0.0 0.00 0.00 0.00 63 1018.1
20260901014013 60 236 0.0 0.0 0.00 0.00 0.00 63 1018.1
20260901013509 60 236 0.0 0.0 0.00 0.00 0.00 63 1018.0
20260901013007 60 236 0.0 0.0 0.00 0.00 0.00 62 1017.9
20260901012505 60 236 0.0 0.0 0.00 0.00 0.00 62 1017.7
20260901012004 61 236 0.0 0.0 0.00 0.00 0.00 62 1017.8
20260901011458 61 236 0.0 0.0 0.00 0.00 0.00 62 1017.6
20260901010952 61 236 0.0 0.0 0.00 0.00 0.00 61 1017.7
20260901010446 62 236 0.0 0.0 0.00 0.00 0.00 60 1017.7
20260901005940 62 236 0.0 0.0 0.00 0.00 0.00 60 1017.7
20260901005434 62 236 0.0 0.0 0.00 0.00 0.00 59 1017.8
20260901004928 62 236 0.0 0.0 0.00 0.00 0.00 59 1017.8
20260901004422 63 236 0.0 0.0 0.00 0.00 0.00 59 1017.8
20260901003917 63 236 0.0 0.0 0.00 0.00 0.00 58 1017.7
20260901003410 63 236 0.0 0.0 0.00 0.00 0.00 58 1017.7
20260901002905 64 236 0.0 0.0 0.00 0.00 0.00 57 1017.8
20260901002358 64 236 0.0 0.0 0.00 0.00 0.00 57 1017.7
20260901001852 64 236 0.0 0.0 0.00 0.00 0.00 57 1017.6
20260901001346 65 236 0.0 0.0 0.00 0.00 0.00 56 1017.7
20260901000839 65 236 0.0 0.0 0.00 0.00 0.00 56 1017.6
20260901000336 65 236 0.0 0.0 0.00 0.00 0.00 55 1017.5
20260831235829 66 236 0.0 0.0 0.00 0.00 0.00 54 1017.4
20260831235322 66 236 0.0 0.0 0.00 0.00 0.00 54 1017.4
20260831234816 67 236 0.0 0.0 0.00 0.00 0.00 53 1017.4
20260831234310 67 236 0.0 0.0 0.00 0.00 0.00 53 1017.3
20260831233804 67 236 0.0 0.0 0.00 0.00 0.00 52 1017.3
20260831233258 67 236 0.0 0.0 0.00 0.00 0.00 52 1017.3
20260831232752 68 236 0.0 0.0 0.00 0.00 0.00 51 1017.4
20260831232245 69 236 0.0 0.0 0.00 0.00 0.00 51 1017.5
20260831231740 69 236 0.0 0.0 0.00 0.00 0.00 51 1017.4
20260831231235 69 236 0.0 0.0 0.00 0.00 0.00 50 1017.5
20260831230735 70 236 0.0 0.0 0.00 0.00 0.00 50 1017.6
20260831230235 70 236 0.0 0.0 0.00 0.00 0.00 49 1017.7
20260831230005 71 236 0.0 0.0 0.00 0.00 0.00 48 1017.7
20260831225236 71 236 0.0 0.0 0.00 0.00 0.00 48 1017.6
20260831224734 72 236 0.0 0.0 0.00 0.00 0.00 46 1017.7
20260831224232 72 236 0.0 0.0 0.00 0.00 0.00 46 1017.6
20260831223734 72 236 0.0 0.0 0.00 0.00 0.00 45 1017.5
20260831223231 73 236 0.0 0.0 0.00 0.00 0.00 45 1017.5
20260831222949 73 236 0.0 0.0 0.00 0.00 0.00 44 1017.5
20260831222230 73 236 0.0 0.0 0.00 0.00 0.00 44 1017.5
20260831221731 74 236 0.0 0.0 0.00 0.00 0.00 44 1017.5
20260831221227 74 236 0.0 0.0 0.00 0.00 0.00 43 1017.6
20260831220948 74 267 0.0 0.0 0.00 0.00 0.00 42 1017.6
20260831220222 75 5 0.0 0.0 0.00 0.00 0.00 41 1017.5
20260831215948 75 5 0.0 0.0 0.00 0.00 0.00 40 1017.5
20260831215221 76 5 0.0 0.0 0.00 0.00 0.00 39 1017.6
20260831214722 76 273 0.0 0.0 0.00 0.00 0.00 37 1017.5
20260831214222 77 273 0.0 0.0 0.00 0.00 0.00 36 1017.5
20260831213716 78 273 0.0 0.0 0.00 0.00 0.00 35 1017.5
20260831213434 79 273 0.0 0.0 0.00 0.00 0.00 34 1017.6
20260831212705 80 253 0.0 0.0 0.00 0.00 0.00 34 1017.5
20260831212654 79 253 0.0 0.0 0.00 0.00 0.00 34 1017.5
20260831211706 79 253 0.0 1.0 0.00 0.00 0.00 35 1017.5
20260831211204 79 254 0.0 1.0 0.00 0.00 0.00 33 1017.5
20260831210703 80 232 0.0 0.0 0.00 0.00 0.00 33 1017.6
20260831210202 80 234 0.0 0.0 0.00 0.00 0.00 34 1017.7
20260831205700 80 234 0.0 1.0 0.00 0.00 0.00 33 1017.5
20260831205159 80 146 0.0 1.0 0.00 0.00 0.00 33 1017.6
20260831204658 80 146 0.0 0.0 0.00 0.00 0.00 34 1017.6
20260831204200 80 146 0.0 0.0 0.00 0.00 0.00 34 1017.6
20260831203700 81 146 0.0 0.0 0.00 0.00 0.00 32 1017.6
20260831203159 82 193 0.0 0.0 0.00 0.00 0.00 30 1017.6
20260831202700 82 193 0.0 0.0 0.00 0.00 0.00 31 1017.6
20260831202414 81 190 0.0 0.0 0.00 0.00 0.00 32 1017.7
20260831202135 80 187 0.0 0.0 0.00 0.00 0.00 30 1017.6
20260831201155 81 187 0.0 0.0 0.00 0.00 0.00 26 1017.7
20260831200655 80 187 0.0 0.0 0.00 0.00 0.00 27 1017.6
20260831200156 80 187 0.0 0.0 0.00 0.00 0.00 26 1017.5
20260831195654 81 187 0.0 0.0 0.00 0.00 0.00 25 1017.6
20260831195423 81 187 0.0 0.0 0.00 0.00 0.00 26 1017.6
20260831194922 81 187 0.0 0.0 0.00 0.00 0.00 26 1017.8
20260831194156 80 187 0.0 0.0 0.00 0.00 0.00 28 1017.8
20260831193652 80 187 0.0 0.0 0.00 0.00 0.00 26 1017.8
20260831193151 80 187 0.0 0.0 0.00 0.00 0.00 27 1017.9
20260831192652 80 187 0.0 0.0 0.00 0.00 0.00 26 1018.0
20260831192409 80 187 0.0 0.0 0.00 0.00 0.00 25 1018.1
20260831191651 81 187 0.0 0.0 0.00 0.00 0.00 24 1018.2
20260831191150 81 187 0.0 0.0 0.00 0.00 0.00 26 1018.2
20260831190652 81 187 0.0 0.0 0.00 0.00 0.00 24 1018.3
20260831190151 80 187 0.0 0.0 0.00 0.00 0.00 26 1018.2
20260831185911 80 187 0.0 0.0 0.00 0.00 0.00 24 1018.3
20260831185145 80 187 0.0 0.0 0.00 0.00 0.00 24 1018.4
20260831184902 79 187 0.0 0.0 0.00 0.00 0.00 26 1018.4
20260831184133 79 187 0.0 0.0 0.00 0.00 0.00 25 1018.5
20260831183627 78 187 0.0 0.0 0.00 0.00 0.00 29 1018.4
20260831183344 78 187 0.0 0.0 0.00 0.00 0.00 27 1018.5
20260831182615 78 188 0.0 0.0 0.00 0.00 0.00 28 1018.6
20260831182109 78 188 0.0 0.0 0.00 0.00 0.00 27 1018.7
20260831181604 78 188 0.0 0.0 0.00 0.00 0.00 28 1018.6
20260831181057 78 188 0.0 0.0 0.00 0.00 0.00 29 1018.6
20260831181038 77 187 0.0 0.0 0.00 0.00 0.00 29 1018.8
20260831180538 77 187 0.0 0.0 0.00 0.00 0.00 27 1018.8
20260831175757 78 187 0.0 0.0 0.00 0.00 0.00 30 1018.9
20260831175035 78 187 0.0 0.0 0.00 0.00 0.00 28 1018.9
20260831174527 79 187 0.0 0.0 0.00 0.00 0.00 28 1019.1
20260831174021 79 188 0.0 0.0 0.00 0.00 0.00 28 1019.1
20260831173956 79 188 0.0 0.0 0.00 0.00 0.00 29 1019.1
20260831173009 80 188 0.0 0.0 0.00 0.00 0.00 27 1019.1
20260831172504 80 188 0.0 0.0 0.00 0.00 0.00 30 1019.0
20260831172218 79 188 0.0 0.0 0.00 0.00 0.00 31 1019.1
20260831171451 79 188 0.0 0.0 0.00 0.00 0.00 29 1019.1
20260831171210 79 188 0.0 0.0 0.00 0.00 0.00 30 1019.2
20260831170439 78 188 0.0 0.0 0.00 0.00 0.00 32 1019.2
20260831170151 76 188 0.0 0.0 0.00 0.00 0.00 35 1019.4
20260831165427 74 188 0.0 0.0 0.00 0.00 0.00 36 1019.4
20260831165141 74 188 0.0 0.0 0.00 0.00 0.00 39 1019.5
20260831164415 73 187 0.0 0.0 0.00 0.00 0.00 37 1019.6
20260831163909 73 187 0.0 0.0 0.00 0.00 0.00 36 1019.6
20260831163403 73 187 0.0 0.0 0.00 0.00 0.00 38 1019.7
20260831162857 73 188 0.0 0.0 0.00 0.00 0.00 38 1019.7
20260831162352 73 215 0.0 0.0 0.00 0.00 0.00 39 1019.9
20260831161845 72 215 0.0 0.0 0.00 0.00 0.00 41 1019.9
20260831161339 71 234 0.0 0.0 0.00 0.00 0.00 42 1019.9
20260831160833 71 233 0.0 0.0 0.00 0.00 0.00 42 1019.8
20260831160327 70 215 0.0 0.0 0.00 0.00 0.00 42 1019.9
20260831155821 70 215 0.0 0.0 0.00 0.00 0.00 41 1019.9
20260831155545 69 216 0.0 0.0 0.00 0.00 0.00 42 1019.9
20260831154809 69 216 0.0 0.0 0.00 0.00 0.00 41 1020.0
20260831154303 69 214 0.0 0.0 0.00 0.00 0.00 43 1020.1
20260831153757 69 214 0.0 0.0 0.00 0.00 0.00 43 1020.1
20260831153251 69 214 0.0 0.0 0.00 0.00 0.00 42 1020.1
20260831152746 68 214 0.0 0.0 0.00 0.00 0.00 42 1020.1
20260831152241 68 215 0.0 0.0 0.00 0.00 0.00 42 1020.2
20260831151733 68 215 0.0 0.0 0.00 0.00 0.00 42 1020.4
20260831151227 68 215 0.0 0.0 0.00 0.00 0.00 44 1020.5
20260831150721 68 206 0.0 0.0 0.00 0.00 0.00 48 1020.7
20260831150215 67 174 0.0 0.0 0.00 0.00 0.00 47 1020.7
20260831145709 67 173 0.0 0.0 0.00 0.00 0.00 46 1020.7
20260831145204 67 174 0.0 0.0 0.00 0.00 0.00 48 1020.7
20260831144657 67 174 0.0 0.0 0.00 0.00 0.00 48 1020.8
20260831144152 67 174 0.0 0.0 0.00 0.00 0.00 49 1020.8
20260831143645 66 174 0.0 0.0 0.00 0.00 0.00 50 1020.9
20260831143138 66 174 0.0 0.0 0.00 0.00 0.00 52 1020.9
20260831142636 66 174 0.0 0.0 0.00 0.00 0.00 52 1020.9
20260831142127 65 174 0.0 0.0 0.00 0.00 0.00 52 1020.8
20260831141621 65 194 0.0 0.0 0.00 0.00 0.00 52 1020.7
20260831141115 65 194 0.0 0.0 0.00 0.00 0.00 52 1020.7
20260831140609 65 194 0.0 0.0 0.00 0.00 0.00 55 1020.8
20260831135558 64 194 0.0 0.0 0.00 0.00 0.00 54 1020.7
20260831135051 64 51 0.0 0.0 0.00 0.00 0.00 58 1020.7
20260831134812 63 173 0.0 0.0 0.00 0.00 0.00 56 1020.7